Tracking 29042 objects as of 20-Jun-2024
HD Live streaming from Space Station
objects crossing your sky now

WESTFORD NEEDLES

Track WESTFORD NEEDLES now!
10-day predictions
WESTFORD NEEDLES is classified as:


NORAD ID: 2530
Int'l Code: 1963-014AJ
Perigee: 3,483.5 km
Apogee: 3,778.3 km
Inclination: 87.6 °
Period: 165.9 minutes
Semi major axis: 10001 km
RCS: 0.1665 m2 (medium)
Launch date: May 9, 1963
Source: United States (US)
Launch site: AIR FORCE WESTERN TEST RANGE (AFWTR)
Your satellite tracking list
Your tracking list is empty




NASA's NSSDC Master Catalog

Two Line Element Set (TLE):
1 02530U 63014AJ  24169.55840432 -.00000174  00000-0 -79814-1 0  9991
2 02530  87.6481 216.6582 0147335 139.7793  21.2146  8.67919081876284
Source of the keplerian elements: AFSPC